ギャラッド彗星

C/2008 J5 ( Garradd )

English version
Home page
Total 6,336 html files since Dec. 4, 1995
Updated on July 20, 2008

---------------------------------------------------------------------

・ プロフィール

発見日 2008年5月13日
発見光度 16.7等
発見者 G. J. Garradd (Siding Spring Survey)

・ 写真集

・ 軌道要素

Epoch 2008 Apr. 4.0 TT = JDT 2454560.5
T 2008 Apr. 1.04575 TT                                  MPC
q   1.9636386            (2000.0)            P               Q
z  +0.0141043      Peri.  313.36370     +0.24119600     +0.17610469
 +/-0.0000755      Node   287.07610     -0.30232432     -0.92082851
e   0.9723043      Incl.   93.26441     -0.92218463     +0.34793965

・ 星図

・ 光度変化

        m1 = 12.0 + 5 logΔ + 10.0 log r

---------------------------------------------------------------------

軌道要素はM.P.E.C. 2008-N41に掲載されたものです。
星図はステラナビゲータ Ver.8 (アストロアーツ) で作成したものです。
光度グラフはComet for Windowsで作成したものです。

---------------------------------------------------------------------

Copyright(C) 1995-2008 Seiichi Yoshida (comet@aerith.net). All rights reserved.